Zurück zum Katalog

ONEWEB-0395

AktivKommunikationPO
NORAD 50475·PAYLOAD·🇬🇧 United Kingdom

Gestartet Dec 27, 2021 von Baikonur Cosmodrome

Loading…

Nächste Überflüge (nächste 24 Stunden)

TLE

AktuellSource: CelesTrak SupGP

Epoche: Sep 14, 2026, 23:25 UTC

1 50475C 21132G   26257.97583750 -.00000999  00000+0 -28219-2 0  2575
2 50475  87.8977   3.2142 0001638 103.5781 291.2037 13.11421485    19

Verfolge ONEWEB-0395 in Echtzeit mit AllMySat

Download on the App Store